Wind_Speed
17 19 19 20 20 20 20 20 19 17 16 16 13 13 14 14 13 13 10 17 20 11 13 11 12 17 12 4 4 4 1 3 3 5 4 4 4 0 1 7 3 3 4 11 11
19 20 21 20 21 20 19 20 19 18 18 18 14 12 11 11 14 13 30 20 15 19 17 13 7 7 3 4 3 4 2 7 5 7 7 7 7 6 4 6 5 6 9 14 15
18 19 19 20 21 21 22 21 20 20 18 17 16 12 9 7 4 13 27 26 23 21 24 20 18 4 5 2 4 4 6 5 5 6 9 7 5 5 9 3 3 6 7 5 14
17 18 20 21 23 23 24 23 21 20 18 16 16 12 7 3 7 4 11 27 25 18 26 13 2 3 4 7 8 8 6 6 4 5 5 5 6 4 3 6 9 7 9 7 9
18 19 20 21 22 24 24 24 23 22 21 17 14 11 3 4 10 18 16 22 23 22 20 6 4 3 6 5 3 5 5 6 6 8 5 7 3 6 7 9 8 10 9 9 8
20 21 21 22 23 25 25 25 24 23 21 19 14 7 4 10 16 25 20 18 24 23 15 8 7 8 5 5 5 5 7 9 5 6 6 5 3 6 5 9 8 9 9 8 9
20 20 22 23 24 25 26 26 25 24 23 21 12 8 4 15 6 12 23 27 29 26 6 19 19 5 2 4 4 6 5 3 6 7 5 5 0 5 9 9 9 9 8 8 8
22 22 22 23 24 24 27 27 26 25 23 14 8 8 8 19 34 25 24 27 22 21 22 16 9 4 2 0 4 4 5 3 5 7 2 8 8 7 10 10 9 10 8 8 6
23 25 25 26 26 25 26 27 27 24 9 6 7 5 9 7 13 21 24 14 22 23 23 17 4 4 5 2 5 4 4 6 4 8 6 4 7 5 10 9 9 9 8 8 6
22 23 24 26 26 27 27 27 17 6 3 3 5 1 7 6 12 22 28 23 7 6 4 4 4 2 3 4 7 5 5 4 6 6 6 6 8 8 10 10 10 10 8 8 7
22 24 24 23 24 23 28 10 3 3 4 8 6 5 7 18 5 16 26 19 6 4 8 3 3 5 8 8 5 6 6 9 4 6 7 10 7 13 11 7 10 8 9 8 8
21 22 23 23 21 18 21 4 5 5 7 11 15 17 32 9 3 7 20 11 7 7 5 0 7 8 8 7 8 7 9 12 6 8 8 8 12 9 11 12 14 12 9 10 6
20 20 22 23 20 14 5 13 22 23 4 7 8 8 13 8 11 15 9 8 5 7 7 9 7 8 10 9 9 7 8 11 6 1 6 4 6 5 7 2 9 8 9 8 11
19 18 18 21 11 8 5 10 19 16 2 6 7 8 11 8 8 11 17 9 6 15 8 8 10 12 10 12 10 9 8 14 6 7 6 4 4 5 6 8 11 11 10 10 9
19 17 16 13 16 6 7 18 17 2 4 7 8 15 11 14 5 6 23 6 13 7 7 15 8 8 12 17 13 10 7 8 6 7 4 3 3 6 7 5 9 11 12 10 10
18 16 14 8 8 13 19 17 2 4 8 6 4 14 12 17 11 7 5 11 9 10 7 13 8 9 15 10 14 8 4 5 5 3 0 7 5 4 6 15 7 10 12 13 10
17 16 15 14 5 6 17 3 2 7 6 6 6 7 25 15 13 10 15 15 12 6 12 7 16 10 6 7 5 5 6 2 3 4 6 1 2 10 11 9 17 19 15 13 12
17 15 18 25 16 15 12 3 11 10 16 4 3 3 16 20 12 13 12 17 13 5 6 10 12 13 6 9 8 7 9 6 7 3 9 6 4 7 5 13 16 19 17 13 10
15 15 15 30 22 12 1 11 13 10 18 8 4 2 6 14 9 17 18 16 8 11 14 8 14 8 5 7 14 5 4 9 6 3 1 4 6 6 2 8 11 13 15 15 12
13 5 14 23 11 12 2 29 8 9 3 24 15 7 6 7 17 14 21 19 20 14 9 9 11 11 11 2 4 11 6 3 2 5 5 4 4 6 3 9 10 13 17 14 10
12 3 15 18 19 2 12 18 21 4 8 6 18 5 8 6 7 14 14 22 21 19 18 14 7 5 4 6 9 1 3 5 4 5 3 3 6 7 11 13 18 17 17 17 15
8 4 7 36 6 4 17 11 5 19 9 4 3 6 6 4 4 7 7 15 21 23 13 11 8 12 4 5 4 2 8 7 4 4 2 4 7 6 8 9 16 18 17 16 16
6 3 5 23 9 8 18 22 14 9 7 3 6 5 2 5 3 8 9 7 10 25 23 11 6 3 5 5 4 3 4 6 9 3 6 0 5 5 6 6 8 12 14 16 15
5 5 2 8 9 12 13 19 11 16 18 14 10 6 5 5 5 6 5 5 7 12 20 20 8 19 15 11 6 4 10 15 9 5 4 7 9 8 7 7 7 10 13 15 18
5 4 5 8 12 20 7 4 19 10 16 8 6 19 11 6 2 12 8 12 16 8 3 9 14 7 18 13 15 9 14 16 18 18 9 9 7 10 11 16 15 10 12 13 14
4 3 1 2 17 19 16 15 16 9 18 14 20 21 7 10 15 6 7 2 9 2 17 4 6 5 3 11 10 5 9 14 20 18 14 10 10 9 13 2 5 12 17 19 19
2 6 3 4 2 8 16 23 11 14 13 15 20 11 14 26 11 12 12 15 15 8 7 7 7 2 6 14 10 2 9 13 18 11 16 12 12 7 9 7 13 13 21 24 21
Wind_Direction
337 338 339 342 341 344 345 339 337 335 327 319 318 306 303 293 290 285 235 239 215 190 187 194 216 240 254 260 184 102 186 259 154 141 208 190 156 165 150 126 47 78 128 125 113
335 338 337 335 334 336 334 332 333 329 323 322 317 306 299 304 301 265 245 242 226 215 207 183 217 213 267 290 332 122 111 180 198 165 180 189 160 157 133 83 73 74 74 100 90
331 331 331 327 326 330 327 327 328 323 322 320 316 305 298 308 317 249 251 237 228 230 230 221 235 143 237 345 249 265 191 218 171 160 152 140 153 172 122 88 155 157 139 116 91
322 323 324 325 327 326 323 321 318 315 314 318 315 305 293 254 214 225 288 224 220 228 212 227 247 221 252 262 263 221 195 160 184 77 124 155 151 93 113 167 160 150 141 121 90
314 316 318 321 320 319 318 318 316 314 316 313 309 300 239 225 241 236 310 208 209 197 198 194 210 153 241 248 229 106 141 116 129 108 117 103 122 139 139 153 158 115 110 109 105
312 313 313 316 316 317 316 314 314 314 311 308 299 269 228 246 254 248 267 196 195 193 205 168 213 208 271 262 142 150 137 151 151 147 159 130 181 107 228 162 145 129 122 123 119
304 310 310 309 312 313 313 313 311 310 309 303 277 201 254 232 233 277 233 214 203 201 194 218 226 164 231 226 179 155 123 159 185 171 178 127 195 204 174 171 153 147 133 122 126
304 305 304 305 304 310 312 310 309 307 303 295 248 164 243 247 251 267 215 212 215 214 222 230 227 154 162 199 16 164 89 164 256 151 183 114 257 221 183 166 157 155 142 130 148
301 305 308 306 307 308 310 310 308 301 288 293 149 180 258 273 208 234 206 209 214 221 233 242 214 161 21 44 357 345 225 230 291 191 142 144 247 231 180 168 160 160 151 145 142
300 301 303 305 305 310 312 313 307 287 162 138 272 39 268 248 197 213 215 221 210 228 273 200 66 137 34 89 240 251 277 256 219 216 157 193 231 194 201 170 168 163 156 150 153
302 302 300 301 303 310 317 333 1 36 206 201 197 231 288 222 196 200 208 205 205 191 211 235 155 215 233 226 213 229 247 263 269 229 148 213 216 197 201 189 160 161 154 159 162
293 297 301 296 297 299 308 252 238 105 292 238 243 242 262 300 270 227 202 170 161 197 158 279 226 218 229 241 240 246 258 271 307 227 158 208 241 195 193 204 173 163 166 162 158
290 295 303 302 305 295 226 263 318 323 244 277 216 228 244 194 240 258 195 166 153 171 187 196 217 209 231 252 253 256 243 261 224 99 317 135 293 182 214 105 150 170 160 155 166
283 290 303 310 294 300 239 289 321 346 278 264 215 218 237 187 258 233 211 158 189 191 177 214 226 230 247 238 224 247 235 251 215 146 209 154 255 290 199 171 164 170 170 171 170
275 282 296 312 296 277 320 315 331 104 276 246 224 193 184 205 130 249 221 190 187 171 157 228 220 227 233 231 219 231 222 232 184 169 155 231 94 265 130 184 175 185 182 177 179
268 275 286 287 259 261 310 317 336 76 240 268 208 183 167 202 206 245 219 194 171 187 203 217 220 222 236 233 215 209 190 37 57 91 9 239 169 263 188 201 173 191 179 176 177
260 264 258 271 237 300 329 332 134 199 195 224 241 163 198 199 209 195 225 199 181 169 209 232 246 256 202 220 171 100 77 291 331 353 228 241 120 247 213 192 180 180 179 176 175
253 258 256 257 255 302 332 83 218 204 200 198 239 177 192 195 212 207 221 215 217 156 177 210 246 253 213 197 183 178 153 161 208 205 264 26 269 267 286 198 178 178 169 164 168
243 252 253 259 255 257 262 203 214 201 202 218 61 161 217 213 203 206 222 226 196 176 210 195 234 259 224 221 163 207 161 190 160 198 105 246 291 341 228 109 136 153 159 173 171
200 229 249 250 226 173 178 223 212 179 165 204 224 181 197 200 200 201 211 219 222 200 183 218 227 231 254 208 328 178 175 109 18 194 247 273 242 228 235 160 149 163 177 174 170
163 195 258 210 161 161 213 219 217 239 228 171 219 244 207 178 187 213 218 225 213 209 195 199 163 261 138 171 191 98 84 71 113 141 190 247 257 214 197 173 172 181 184 174 175
156 197 250 152 163 198 220 198 282 217 255 270 301 218 234 228 275 217 222 218 212 212 194 201 181 228 213 286 249 130 156 122 114 301 305 212 266 250 220 163 172 180 181 181 176
169 213 207 173 193 214 231 225 245 246 221 247 242 204 156 197 234 211 244 253 248 208 207 185 204 132 354 342 356 169 133 88 100 106 237 243 264 303 92 164 177 177 175 179 171
170 179 271 204 235 209 219 227 221 240 262 265 284 312 293 271 213 272 289 280 281 206 198 184 172 204 210 200 147 188 166 172 169 183 227 241 275 271 154 177 154 177 176 188 172
194 203 174 184 217 232 217 250 214 233 220 233 262 238 244 299 334 242 259 282 286 229 203 212 202 192 214 178 183 190 190 194 205 219 204 238 238 250 201 198 186 166 169 177 184
174 201 252 227 209 218 227 239 241 237 224 238 236 252 311 257 235 309 334 260 247 289 183 206 210 115 62 151 151 150 212 214 215 221 229 235 248 234 237 212 175 178 174 184 188
281 270 56 239 144 186 220 236 242 247 272 254 246 261 231 249 270 261 261 274 259 221 189 164 154 102 152 140 115 230 196 213 228 223 214 225 232 233 232 218 239 182 180 189 190
Height
821 818 815 811 809 806 804 805 802 798 796 795 790 789 789 788 783 782 778 777 776 773 775 776 778 777 778 776 775 779 814 821 805 810 802 794 796 787 785 793 793 795 799 802 804
819 814 811 809 809 807 805 804 801 798 795 792 789 788 789 784 782 776 767 773 775 773 773 774 775 777 783 780 778 790 814 800 785 791 797 792 791 789 793 799 804 802 802 803 802
818 816 814 812 811 806 805 802 799 798 792 791 789 787 786 782 780 763 763 766 771 769 770 770 771 777 784 780 782 783 799 787 781 780 783 789 791 785 798 808 802 805 804 802 801
818 815 813 809 807 804 802 800 798 795 792 787 785 784 783 781 794 755 756 760 765 764 768 770 772 780 787 792 777 792 777 778 777 774 779 786 783 789 791 796 795 796 798 799 800
815 812 810 808 806 803 801 797 794 790 785 784 782 783 780 781 767 754 756 757 761 762 762 768 775 779 789 784 776 781 779 776 774 777 778 780 787 790 795 791 791 795 798 800 801
813 811 807 804 801 800 797 793 788 784 782 780 778 778 779 781 757 756 758 757 757 758 759 766 768 768 775 777 776 770 774 778 774 775 777 783 787 787 794 787 790 795 798 800 801
811 808 804 802 800 798 792 786 783 779 776 774 773 773 775 761 753 752 754 756 754 753 757 759 759 766 765 775 766 771 783 780 778 776 779 779 793 792 785 786 791 796 798 799 801
805 804 804 801 800 794 788 783 778 774 772 770 769 770 769 749 752 750 753 753 754 754 756 754 757 756 762 762 768 777 787 803 782 776 775 784 809 786 783 786 793 796 797 799 801
803 802 798 798 794 788 783 778 772 769 768 766 769 768 764 745 746 745 750 749 750 751 754 753 754 761 765 782 798 791 808 802 790 774 780 785 801 782 781 784 791 794 797 800 801
798 797 796 794 790 784 776 772 766 764 765 767 768 774 752 744 738 742 746 748 749 749 753 755 764 775 783 797 817 809 806 794 795 780 779 790 792 786 783 782 788 792 796 800 801
795 794 792 790 788 783 777 770 766 767 764 760 755 753 739 735 736 737 740 746 749 755 771 763 780 793 786 784 783 786 792 794 783 773 781 788 788 786 783 784 790 793 797 800 801
796 794 792 788 784 781 778 773 762 764 767 748 748 748 736 737 741 734 736 749 757 771 763 774 787 774 772 775 781 784 792 791 776 769 778 785 787 783 782 778 782 789 796 797 799
792 790 787 782 777 774 771 768 763 761 766 745 738 739 733 734 740 738 732 740 754 767 767 780 773 764 771 777 783 783 788 786 784 773 774 780 792 782 777 777 782 787 789 793 796
789 787 784 778 777 769 766 764 761 761 776 755 736 728 727 728 739 725 723 734 747 760 765 770 758 766 772 777 775 792 770 769 775 790 811 778 823 784 779 782 784 787 791 792 794
784 783 781 780 774 769 763 760 758 759 806 732 719 704 712 727 728 724 719 727 746 751 757 760 762 769 772 768 762 776 762 767 770 787 791 786 817 789 779 788 789 787 788 790 790
778 778 778 775 771 764 761 758 758 786 792 734 706 711 719 717 721 720 720 715 723 742 745 751 743 750 754 749 750 749 760 773 784 799 822 794 800 798 790 772 780 782 783 786 789
773 773 774 772 766 764 761 759 780 783 729 727 717 710 712 720 722 724 729 731 742 765 766 753 751 741 741 756 746 757 785 816 829 834 830 782 797 780 764 759 761 773 778 783 785
767 768 767 764 763 765 764 766 774 728 724 702 705 706 719 711 719 720 729 735 729 742 761 771 777 747 736 748 757 764 780 814 825 835 803 782 797 779 749 743 747 758 768 778 785
762 762 761 754 761 767 769 758 721 717 705 707 711 718 720 711 714 721 723 728 727 734 753 769 762 734 732 731 737 760 778 765 790 792 803 796 772 759 750 753 758 767 773 778 781
755 757 752 749 755 763 766 714 710 695 696 703 718 712 722 715 720 719 718 709 717 718 721 743 763 738 730 730 733 739 743 779 796 813 817 800 781 790 763 763 765 770 772 775 780
747 752 735 740 751 760 737 702 704 695 695 705 709 712 709 714 713 714 712 703 701 707 712 724 747 750 736 744 752 751 766 773 782 790 815 825 799 761 753 753 760 763 766 769 775
740 745 726 731 748 743 720 700 700 699 697 704 700 704 705 705 712 716 710 697 682 691 718 718 739 754 746 740 737 740 754 767 795 791 791 797 796 740 741 742 745 754 759 765 768
729 733 725 724 728 727 708 707 707 703 704 705 705 700 696 705 715 704 698 681 680 682 696 708 740 772 766 752 740 741 750 755 764 789 799 803 792 745 740 742 746 753 757 763 767
722 724 723 719 713 712 712 707 711 704 708 707 705 700 704 705 704 705 696 682 675 677 678 683 722 720 741 739 743 750 742 747 763 785 778 779 767 758 744 745 745 751 754 762 760
709 705 701 713 714 708 712 702 707 709 698 702 704 703 710 711 705 701 693 688 674 668 670 692 708 710 705 714 724 731 734 740 751 751 766 760 769 755 736 733 733 741 752 760 764
707 702 701 699 700 705 708 704 704 700 703 699 708 699 707 710 702 702 692 687 686 676 673 690 712 708 728 713 724 734 733 736 735 739 749 753 763 743 729 728 727 739 744 752 754
703 703 699 705 699 702 700 694 698 702 698 698 696 700 704 686 695 689 686 681 680 680 687 687 695 715 740 726 738 752 731 736 736 735 739 755 743 735 737 732 729 728 732 737 743